KO6LQK Weather Reports


time (UTC)temp
C
wind
direction
speed
KPH
gust
KPH
rain 1hr
cm
rain 24hr
cm
rain mn
cm
humidity
%
barometer
mb
20260902104050 16 206 9.7 14.5 0.00 0.00 0.00 29 1022.4
20260902103546 16 228 12.9 17.7 0.00 0.00 0.00 29 1022.3
20260902103041 16 201 12.9 14.5 0.00 0.00 0.00 28 1022.6
20260902102538 17 218 6.4 14.5 0.00 0.00 0.00 27 1022.7
20260902102034 17 205 8.0 17.7 0.00 0.00 0.00 27 1022.2
20260902101530 17 213 11.3 12.9 0.00 0.00 0.00 27 1022.4
20260902101028 17 241 9.7 16.1 0.00 0.00 0.00 26 1022.3
20260902100528 17 215 14.5 17.7 0.00 0.00 0.00 26 1022.4
20260902100029 17 236 11.3 24.1 0.00 0.00 0.00 25 1022.3
20260902095528 17 240 6.4 14.5 0.00 0.00 0.00 25 1022.3
20260902095027 17 258 6.4 17.7 0.00 0.00 0.00 24 1022.7
20260902094523 17 261 11.3 12.9 0.00 0.00 0.00 24 1022.3
20260902094018 17 243 14.5 19.3 0.00 0.00 0.00 24 1022.6
20260902093513 17 222 19.3 20.9 0.00 0.00 0.00 25 1022.6
20260902093012 17 211 6.4 17.7 0.00 0.00 0.00 25 1022.4
20260902092508 17 219 12.9 16.1 0.00 0.00 0.00 26 1022.7
20260902092003 17 222 8.0 14.5 0.00 0.00 0.00 26 1022.4
20260902091458 17 196 6.4 8.0 0.00 0.00 0.00 26 1022.3
20260902090954 17 216 9.7 9.7 0.00 0.00 0.00 26 1022.6
20260902090449 17 232 6.4 14.5 0.00 0.00 0.00 27 1022.6
20260902085948 17 220 9.7 11.3 0.00 0.00 0.00 27 1022.8
20260902085443 17 204 6.4 17.7 0.00 0.00 0.00 27 1022.4
20260902084939 16 216 8.0 14.5 0.00 0.00 0.00 27 1022.8
20260902084435 17 202 9.7 19.3 0.00 0.00 0.00 27 1022.7
20260902083931 17 215 16.1 19.3 0.00 0.00 0.00 27 1022.7
20260902083430 17 222 9.7 16.1 0.00 0.00 0.00 27 1022.7
20260902082925 17 203 6.4 12.9 0.00 0.00 0.00 28 1022.9
20260902082420 17 240 3.2 19.3 0.00 0.00 0.00 27 1022.8
20260902081917 17 216 11.3 14.5 0.00 0.00 0.00 29 1022.8
20260902081414 17 204 12.9 16.1 0.00 0.00 0.00 28 1022.9
20260902080914 17 231 11.3 16.1 0.00 0.00 0.00 29 1022.8
20260902080410 17 212 9.7 11.3 0.00 0.00 0.00 31 1022.8
20260902075909 17 196 8.0 14.5 0.00 0.00 0.00 31 1022.8
20260902075406 16 170 8.0 8.0 0.00 0.00 0.00 31 1022.9
20260902074901 16 171 8.0 8.0 0.00 0.00 0.00 31 1022.9
20260902074357 16 179 9.7 11.3 0.00 0.00 0.00 31 1022.8
20260902073851 16 218 12.9 16.1 0.00 0.00 0.00 31 1022.8
20260902073348 17 221 6.4 11.3 0.00 0.00 0.00 32 1022.8
20260902072843 17 186 3.2 6.4 0.00 0.00 0.00 32 1022.9
20260902072339 17 215 6.4 8.0 0.00 0.00 0.00 32 1023.0
20260902071835 16 172 8.0 9.7 0.00 0.00 0.00 33 1022.7
20260902071329 17 215 4.8 12.9 0.00 0.00 0.00 33 1022.8
20260902070826 16 211 9.7 14.5 0.00 0.00 0.00 33 1022.7
20260902070326 16 215 9.7 12.9 0.00 0.00 0.00 34 1022.8
20260902065824 16 206 11.3 14.5 0.00 0.00 0.00 34 1022.4
20260902065320 16 212 8.0 11.3 0.00 0.00 0.00 34 1022.6
20260902064815 16 218 11.3 11.3 0.00 0.00 0.00 34 1022.6
20260902064311 16 203 6.4 11.3 0.00 0.00 0.00 35 1022.7
20260902063806 16 217 8.0 12.9 0.00 0.00 0.00 35 1022.6
20260902063301 16 214 8.0 12.9 0.00 0.00 0.00 35 1022.4
20260902062800 16 213 9.7 12.9 0.00 0.00 0.00 35 1022.7
20260902062255 16 219 8.0 9.7 0.00 0.00 0.00 35 1022.8
20260902061755 16 215 8.0 14.5 0.00 0.00 0.00 34 1022.7
20260902061250 17 221 12.9 16.1 0.00 0.00 0.00 34 1022.8
20260902060748 17 216 9.7 12.9 0.00 0.00 0.00 34 1022.8
20260902060242 17 205 11.3 14.5 0.00 0.00 0.00 33 1022.6
20260902055737 17 211 9.7 14.5 0.00 0.00 0.00 32 1022.8
20260902055235 17 212 9.7 14.5 0.00 0.00 0.00 32 1022.6
20260902054735 17 208 9.7 14.5 0.00 0.00 0.00 32 1022.9
20260902054230 17 206 9.7 14.5 0.00 0.00 0.00 31 1022.6
20260902053726 17 223 9.7 14.5 0.00 0.00 0.00 31 1023.0
20260902053225 17 248 8.0 9.7 0.00 0.00 0.00 30 1022.6
20260902052725 17 229 6.4 14.5 0.00 0.00 0.00 29 1022.7
20260902052220 18 236 9.7 11.3 0.00 0.00 0.00 27 1022.6
20260902051719 18 247 6.4 8.0 0.00 0.00 0.00 26 1022.6
20260902051214 18 254 8.0 9.7 0.00 0.00 0.00 25 1022.7
20260902050709 19 261 8.0 8.0 0.00 0.00 0.00 24 1022.4
20260902050204 19 274 3.2 6.4 0.00 0.00 0.00 23 1022.4
20260902045704 19 272 6.4 6.4 0.00 0.00 0.00 23 1022.3
20260902045201 19 265 3.2 6.4 0.00 0.00 0.00 22 1022.3
20260902044655 19 277 4.8 6.4 0.00 0.00 0.00 22 1022.4
20260902044152 19 272 3.2 4.8 0.00 0.00 0.00 22 1022.4
20260902043646 20 269 3.2 6.4 0.00 0.00 0.00 22 1022.3
20260902043142 20 279 3.2 8.0 0.00 0.00 0.00 21 1022.2
20260902042641 20 246 6.4 6.4 0.00 0.00 0.00 20 1022.0
20260902042137 20 273 4.8 6.4 0.00 0.00 0.00 21 1022.1
20260902041636 20 258 4.8 8.0 0.00 0.00 0.00 20 1022.1
20260902041131 20 268 6.4 8.0 0.00 0.00 0.00 20 1022.0
20260902040630 20 281 3.2 4.8 0.00 0.00 0.00 20 1022.0
20260902040126 20 275 3.2 4.8 0.00 0.00 0.00 19 1021.8
20260902035624 20 258 4.8 6.4 0.00 0.00 0.00 19 1021.8
20260902035120 20 105 1.6 3.2 0.00 0.00 0.00 20 1021.6
20260902034619 21 194 3.2 3.2 0.00 0.00 0.00 19 1021.6
20260902034118 21 249 3.2 12.9 0.00 0.00 0.00 18 1021.4
20260902033618 21 212 4.8 6.4 0.00 0.00 0.00 19 1021.7
20260902033113 21 208 3.2 12.9 0.00 0.00 0.00 19 1021.5
20260902032612 21 219 6.4 9.7 0.00 0.00 0.00 18 1021.1
20260902032107 21 251 9.7 9.7 0.00 0.00 0.00 19 1021.2
20260902031607 21 256 4.8 8.0 0.00 0.00 0.00 19 1021.1
20260902031103 21 261 1.6 6.4 0.00 0.00 0.00 19 1021.0
20260902030558 22 267 3.2 4.8 0.00 0.00 0.00 18 1020.9
20260902030058 22 294 4.8 8.0 0.00 0.00 0.00 18 1021.0
20260902025557 22 261 4.8 4.8 0.00 0.00 0.00 18 1021.0
20260902025053 22 201 3.2 16.1 0.00 0.00 0.00 18 1021.0
20260902024549 22 205 11.3 17.7 0.00 0.00 0.00 18 1020.8
20260902024048 22 221 12.9 24.1 0.00 0.00 0.00 17 1020.6
20260902023544 23 206 14.5 20.9 0.00 0.00 0.00 17 1020.6
20260902023039 23 221 19.3 27.4 0.00 0.00 0.00 17 1020.6
20260902022533 23 222 12.9 24.1 0.00 0.00 0.00 17 1020.6
20260902022029 23 220 17.7 24.1 0.00 0.00 0.00 17 1020.5
20260902021524 23 217 12.9 20.9 0.00 0.00 0.00 17 1020.6
20260902021019 23 204 12.9 24.1 0.00 0.00 0.00 17 1020.6
20260902020515 24 226 9.7 30.6 0.00 0.00 0.00 17 1020.4
20260902020011 24 210 16.1 32.2 0.00 0.00 0.00 17 1020.5
20260902015512 24 220 19.3 27.4 0.00 0.00 0.00 17 1020.4
20260902015007 25 219 12.9 30.6 0.00 0.00 0.00 17 1020.1
20260902014503 25 220 9.7 30.6 0.00 0.00 0.00 17 1020.2
20260902013958 25 216 25.7 33.8 0.00 0.00 0.00 16 1020.1
20260902013453 25 235 22.5 27.4 0.00 0.00 0.00 16 1020.2
20260902012948 25 226 14.5 30.6 0.00 0.00 0.00 15 1019.9
20260902012443 26 213 19.3 27.4 0.00 0.00 0.00 15 1020.2
20260902011939 26 236 8.0 22.5 0.00 0.00 0.00 15 1020.3
20260902011434 26 232 19.3 29.0 0.00 0.00 0.00 15 1020.2
20260902010933 26 216 17.7 27.4 0.00 0.00 0.00 15 1020.1
20260902010429 26 217 16.1 35.4 0.00 0.00 0.00 15 1020.2
20260902005928 26 192 11.3 33.8 0.00 0.00 0.00 15 1020.4
20260902005427 26 219 22.5 27.4 0.00 0.00 0.00 15 1020.4
20260902004924 26 226 20.9 35.4 0.00 0.00 0.00 15 1020.2
20260902004423 26 251 17.7 37.0 0.00 0.00 0.00 14 1020.3
20260902003918 27 222 14.5 32.2 0.00 0.00 0.00 15 1020.5
20260902003413 27 214 19.3 27.4 0.00 0.00 0.00 15 1020.4
20260902002909 27 217 19.3 27.4 0.00 0.00 0.00 15 1020.3
20260902002409 27 230 14.5 37.0 0.00 0.00 0.00 15 1020.4
20260902001903 27 222 29.0 37.0 0.00 0.00 0.00 15 1020.7
20260902001358 27 233 12.9 29.0 0.00 0.00 0.00 15 1020.7
20260902000853 27 231 20.9 41.8 0.00 0.00 0.00 15 1020.7
20260902000353 27 221 14.5 25.7 0.00 0.00 0.00 15 1020.6
20260901235848 27 220 16.1 27.4 0.00 0.00 0.00 15 1020.8
20260901235349 27 211 24.1 35.4 0.00 0.00 0.00 14 1020.8
20260901234844 27 219 16.1 24.1 0.00 0.00 0.00 15 1020.9
20260901234343 27 214 20.9 25.7 0.00 0.00 0.00 15 1020.7
20260901233839 27 221 30.6 30.6 0.00 0.00 0.00 14 1020.6
20260901233334 27 222 17.7 25.7 0.00 0.00 0.00 15 1020.9
20260901232830 27 253 9.7 33.8 0.00 0.00 0.00 15 1021.0
20260901232325 27 217 17.7 35.4 0.00 0.00 0.00 14 1020.9
20260901231821 27 218 24.1 32.2 0.00 0.00 0.00 15 1020.7
20260901231317 28 235 24.1 30.6 0.00 0.00 0.00 14 1020.8
20260901230813 28 215 24.1 32.2 0.00 0.00 0.00 15 1020.9
20260901230312 28 210 30.6 33.8 0.00 0.00 0.00 16 1021.1
20260901225808 28 224 24.1 30.6 0.00 0.00 0.00 15 1021.0
20260901225308 28 233 12.9 22.5 0.00 0.00 0.00 15 1020.9
20260901224803 28 213 24.1 29.0 0.00 0.00 0.00 15 1020.9
20260901224259 28 226 20.9 30.6 0.00 0.00 0.00 16 1021.0
20260901223755 28 223 16.1 33.8 0.00 0.00 0.00 14 1021.1
20260901223250 28 219 16.1 29.0 0.00 0.00 0.00 14 1021.0
20260901222746 28 218 20.9 29.0 0.00 0.00 0.00 15 1020.9
20260901222242 28 216 22.5 30.6 0.00 0.00 0.00 15 1021.0
20260901221738 28 230 35.4 41.8 0.00 0.00 0.00 14 1021.0
20260901221233 28 214 19.3 37.0 0.00 0.00 0.00 15 1021.1
20260901220733 28 229 27.4 30.6 0.00 0.00 0.00 16 1021.0
20260901220232 28 235 25.7 32.2 0.00 0.00 0.00 15 1021.2
20260901215731 28 240 16.1 29.0 0.00 0.00 0.00 15 1021.1
20260901215225 28 228 17.7 37.0 0.00 0.00 0.00 15 1021.2
20260901214724 28 232 12.9 33.8 0.00 0.00 0.00 16 1021.2
20260901214218 28 235 19.3 35.4 0.00 0.00 0.00 16 1021.4
20260901213717 28 199 17.7 40.2 0.00 0.00 0.00 15 1021.5
20260901213212 28 228 17.7 25.7 0.00 0.00 0.00 15 1021.2
20260901212712 28 221 20.9 33.8 0.00 0.00 0.00 15 1021.1
20260901212208 28 234 24.1 35.4 0.00 0.00 0.00 14 1021.4
20260901211708 28 214 17.7 37.0 0.00 0.00 0.00 14 1021.5
20260901211205 28 220 17.7 35.4 0.00 0.00 0.00 13 1021.2
20260901210700 28 218 14.5 32.2 0.00 0.00 0.00 13 1021.4
20260901210156 28 216 12.9 32.2 0.00 0.00 0.00 13 1021.5
20260901205651 28 216 12.9 32.2 0.00 0.00 0.00 13 1021.5
20260901205151 28 236 12.9 37.0 0.00 0.00 0.00 13 1021.5
20260901204647 28 211 16.1 30.6 0.00 0.00 0.00 13 1021.5
20260901204142 28 199 9.7 27.4 0.00 0.00 0.00 13 1021.6
20260901203642 28 203 16.1 24.1 0.00 0.00 0.00 13 1021.6
20260901203138 28 217 11.3 33.8 0.00 0.00 0.00 13 1021.7
20260901202637 28 220 25.7 32.2 0.00 0.00 0.00 13 1021.9
20260901202133 28 234 19.3 30.6 0.00 0.00 0.00 13 1022.0
20260901201629 28 226 14.5 30.6 0.00 0.00 0.00 13 1022.0
20260901201127 28 220 19.3 32.2 0.00 0.00 0.00 12 1022.1
20260901200627 28 215 19.3 32.2 0.00 0.00 0.00 13 1022.1
20260901200123 28 228 14.5 33.8 0.00 0.00 0.00 14 1022.1
20260901195621 28 241 14.5 27.4 0.00 0.00 0.00 14 1022.3
20260901195120 28 223 20.9 30.6 0.00 0.00 0.00 14 1022.2
20260901194616 28 242 14.5 29.0 0.00 0.00 0.00 14 1022.4
20260901194111 28 222 12.9 32.2 0.00 0.00 0.00 14 1022.3
20260901193606 28 222 22.5 30.6 0.00 0.00 0.00 14 1022.4
20260901193101 28 248 16.1 29.0 0.00 0.00 0.00 14 1022.3
20260901192556 28 225 12.9 22.5 0.00 0.00 0.00 14 1022.3
20260901192051 28 234 14.5 27.4 0.00 0.00 0.00 13 1022.6
20260901191547 29 228 20.9 24.1 0.00 0.00 0.00 12 1022.6
20260901191043 29 226 11.3 22.5 0.00 0.00 0.00 13 1022.4
20260901190539 28 222 14.5 22.5 0.00 0.00 0.00 13 1022.6
20260901190038 29 210 12.9 27.4 0.00 0.00 0.00 12 1022.7
20260901185536 29 243 6.4 19.3 0.00 0.00 0.00 12 1022.7
20260901185035 29 177 9.7 16.1 0.00 0.00 0.00 12 1022.6
20260901184531 29 183 9.7 27.4 0.00 0.00 0.00 13 1022.7
20260901184026 28 237 9.7 20.9 0.00 0.00 0.00 13 1022.4
20260901183521 28 215 12.9 20.9 0.00 0.00 0.00 13 1022.7
20260901183016 28 221 14.5 24.1 0.00 0.00 0.00 13 1022.4
20260901182513 28 223 11.3 14.5 0.00 0.00 0.00 12 1022.8
20260901182013 28 241 8.0 16.1 0.00 0.00 0.00 13 1022.8
20260901181512 28 237 11.3 20.9 0.00 0.00 0.00 13 1022.8
20260901181012 28 222 12.9 25.7 0.00 0.00 0.00 12 1022.6
20260901180510 28 199 11.3 19.3 0.00 0.00 0.00 12 1022.6
20260901180010 28 188 11.3 22.5 0.00 0.00 0.00 12 1022.4
20260901175505 28 223 14.5 20.9 0.00 0.00 0.00 12 1022.8
20260901174959 28 219 16.1 19.3 0.00 0.00 0.00 13 1022.7
20260901174455 27 169 11.3 16.1 0.00 0.00 0.00 12 1022.6
20260901173950 28 195 6.4 25.7 0.00 0.00 0.00 12 1022.6
20260901173445 27 226 6.4 17.7 0.00 0.00 0.00 13 1022.4
20260901172942 27 201 14.5 24.1 0.00 0.00 0.00 13 1022.4
20260901172437 27 241 14.5 25.7 0.00 0.00 0.00 13 1022.4
20260901171934 27 214 12.9 24.1 0.00 0.00 0.00 13 1022.3
20260901171433 27 213 12.9 27.4 0.00 0.00 0.00 14 1022.4
20260901170932 27 223 14.5 16.1 0.00 0.00 0.00 14 1022.4
20260901170427 27 184 12.9 20.9 0.00 0.00 0.00 14 1022.6
20260901165927 26 185 14.5 20.9 0.00 0.00 0.00 14 1022.6
20260901165422 27 183 16.1 19.3 0.00 0.00 0.00 14 1022.4
20260901164918 26 163 11.3 20.9 0.00 0.00 0.00 14 1022.3
20260901164418 26 177 16.1 20.9 0.00 0.00 0.00 14 1022.4
20260901163913 26 177 9.7 14.5 0.00 0.00 0.00 14 1022.4
20260901163408 26 212 11.3 17.7 0.00 0.00 0.00 15 1022.4
20260901162902 25 217 11.3 14.5 0.00 0.00 0.00 15 1022.2
20260901162402 25 246 11.3 16.1 0.00 0.00 0.00 15 1022.6
20260901161902 25 274 6.4 9.7 0.00 0.00 0.00 16 1022.7
20260901161401 24 315 4.8 4.8 0.00 0.00 0.00 18 1022.4
20260901160856 23 197 4.8 6.4 0.00 0.00 0.00 21 1022.6
20260901160352 23 275 3.2 4.8 0.00 0.00 0.00 21 1022.7
20260901155851 23 221 3.2 4.8 0.00 0.00 0.00 22 1022.4
20260901155346 23 316 4.8 4.8 0.00 0.00 0.00 22 1022.8
20260901154843 22 266 3.2 6.4 0.00 0.00 0.00 22 1022.7
20260901154342 22 254 0.0 3.2 0.00 0.00 0.00 23 1022.8
20260901153837 22 295 1.6 4.8 0.00 0.00 0.00 23 1022.7
20260901153332 21 34 3.2 4.8 0.00 0.00 0.00 23 1022.4
20260901152830 21 235 0.0 6.4 0.00 0.00 0.00 23 1022.7
20260901152330 21 293 3.2 4.8 0.00 0.00 0.00 23 1022.4
20260901151825 22 348 4.8 9.7 0.00 0.00 0.00 22 1022.4
20260901151320 21 340 0.0 3.2 0.00 0.00 0.00 22 1022.6
20260901150819 21 121 4.8 4.8 0.00 0.00 0.00 22 1022.3
20260901150318 21 185 4.8 4.8 0.00 0.00 0.00 22 1022.6
20260901145816 21 210 0.0 3.2 0.00 0.00 0.00 22 1022.4
20260901145315 21 185 1.6 3.2 0.00 0.00 0.00 22 1022.2
20260901144811 20 226 1.6 3.2 0.00 0.00 0.00 23 1022.2
20260901144306 20 173 3.2 4.8 0.00 0.00 0.00 24 1022.0
20260901143802 19 215 3.2 4.8 0.00 0.00 0.00 25 1022.3
20260901143258 18 112 3.2 6.4 0.00 0.00 0.00 26 1022.0
20260901142754 18 189 4.8 6.4 0.00 0.00 0.00 30 1021.9
20260901142253 17 205 9.7 9.7 0.00 0.00 0.00 34 1022.0
20260901141748 17 211 8.0 9.7 0.00 0.00 0.00 34 1022.2
20260901141248 17 219 11.3 16.1 0.00 0.00 0.00 34 1022.0
20260901140747 17 234 9.7 12.9 0.00 0.00 0.00 33 1022.0
20260901140246 17 227 8.0 12.9 0.00 0.00 0.00 33 1021.7
20260901135741 17 207 3.2 6.4 0.00 0.00 0.00 31 1021.8
20260901135241 17 150 3.2 4.8 0.00 0.00 0.00 30 1021.8
20260901134737 16 221 8.0 11.3 0.00 0.00 0.00 32 1021.9
20260901134237 16 231 9.7 12.9 0.00 0.00 0.00 32 1021.9
20260901133737 16 223 8.0 16.1 0.00 0.00 0.00 33 1021.7
20260901133236 16 210 8.0 11.3 0.00 0.00 0.00 32 1021.8
20260901132735 16 202 6.4 11.3 0.00 0.00 0.00 32 1021.5
20260901132230 16 235 11.3 11.3 0.00 0.00 0.00 31 1021.9
20260901131725 16 241 6.4 8.0 0.00 0.00 0.00 31 1021.5
20260901131224 16 233 4.8 6.4 0.00 0.00 0.00 30 1021.6
20260901130720 16 209 6.4 9.7 0.00 0.00 0.00 30 1021.5
20260901130218 16 231 6.4 9.7 0.00 0.00 0.00 30 1021.4
20260901125716 16 221 3.2 8.0 0.00 0.00 0.00 30 1021.5
20260901125212 16 230 6.4 9.7 0.00 0.00 0.00 29 1021.5
20260901124706 16 241 8.0 9.7 0.00 0.00 0.00 28 1021.2
20260901124207 17 235 6.4 9.7 0.00 0.00 0.00 28 1021.5
20260901123706 17 247 9.7 14.5 0.00 0.00 0.00 27 1021.4
20260901123201 17 236 6.4 12.9 0.00 0.00 0.00 27 1021.5
20260901122700 17 241 6.4 11.3 0.00 0.00 0.00 27 1021.4
20260901122155 17 242 9.7 9.7 0.00 0.00 0.00 27 1021.4
20260901121649 16 237 4.8 12.9 0.00 0.00 0.00 27 1021.1
20260901121145 16 226 9.7 11.3 0.00 0.00 0.00 27 1021.2
20260901120644 16 230 4.8 9.7 0.00 0.00 0.00 27 1021.1
20260901120139 16 233 4.8 6.4 0.00 0.00 0.00 27 1021.0
20260901115635 16 226 4.8 8.0 0.00 0.00 0.00 28 1020.9
20260901115131 16 217 6.4 8.0 0.00 0.00 0.00 28 1021.2
20260901114627 16 234 6.4 8.0 0.00 0.00 0.00 29 1021.1
20260901114126 16 227 4.8 9.7 0.00 0.00 0.00 29 1021.2
20260901113625 16 224 6.4 8.0 0.00 0.00 0.00 29 1020.9
20260901113121 16 228 6.4 11.3 0.00 0.00 0.00 29 1021.0
20260901112621 16 239 8.0 9.7 0.00 0.00 0.00 29 1021.4
20260901112115 16 246 8.0 8.0 0.00 0.00 0.00 29 1021.0
20260901111614 16 245 6.4 6.4 0.00 0.00 0.00 29 1021.1
20260901111113 16 234 8.0 11.3 0.00 0.00 0.00 29 1021.0
20260901110609 17 245 4.8 11.3 0.00 0.00 0.00 30 1021.1
20260901110104 17 240 8.0 9.7 0.00 0.00 0.00 30 1021.2
20260901105601 16 234 8.0 9.7 0.00 0.00 0.00 30 1021.0
20260901105100 16 218 3.2 8.0 0.00 0.00 0.00 31 1021.2
20260901104556 16 238 4.8 8.0 0.00 0.00 0.00 32 1021.1